Time,TemperatureF,DewpointF,PressureIn,WindDirection,WindDirectionDegrees,WindSpeedMPH,WindSpeedGustMPH,Humidity,HourlyPrecipIn,Conditions,Clouds,dailyrainin,SoftwareType,DateUTC
2013-01-21 00:00:00,20.6,11.4,30.12,SSE,167,0.0,0.0,67,0.00,,,0.00,WUHU216DAVISVP2,2013-01-21 05:00:00,
2013-01-21 00:01:00,20.5,11.3,30.12,SSE,167,0.0,0.0,67,0.00,,,0.00,WUHU216DAVISVP2,2013-01-21 05:01:00,
2013-01-21 00:03:00,20.5,11.3,30.12,SSE,167,0.0,0.0,67,0.00,,,0.00,WUHU216DAVISVP2,2013-01-21 05:03:00,
2013-01-21 00:08:00,20.5,10.9,30.12,SSE,167,0.0,0.0,66,0.00,,,0.00,WUHU216DAVISVP2,2013-01-21 05:08:00,
2013-01-21 00:13:00,20.4,10.8,30.11,SSE,167,0.0,0.0,66,0.00,,,0.00,WUHU216DAVISVP2,2013-01-21 05:13:00,
2013-01-21 00:18:00,20.4,10.5,30.11,SSE,167,0.0,0.0,65,0.00,,,0.00,WUHU216DAVISVP2,2013-01-21 05:18:00,
2013-01-21 00:20:00,20.4,10.5,30.11,SSE,167,0.0,0.0,65,0.00,,,0.00,WUHU216DAVISVP2,2013-01-21 05:20:00,
2013-01-21 00:23:00,20.4,10.5,30.11,SSE,167,0.0,0.0,65,0.00,,,0.00,WUHU216DAVISVP2,2013-01-21 05:23:00,
2013-01-21 00:28:00,20.4,10.5,30.11,SSE,167,0.0,0.0,65,0.00,,,0.00,WUHU216DAVISVP2,2013-01-21 05:28:00,
2013-01-21 00:33:00,20.4,10.5,30.10,SSE,167,0.0,0.0,65,0.00,,,0.00,WUHU216DAVISVP2,2013-01-21 05:33:00,
2013-01-21 00:39:00,20.4,10.5,30.10,SSE,167,0.0,0.0,65,0.00,,,0.00,WUHU216DAVISVP2,2013-01-21 05:39:00,
2013-01-21 00:44:00,20.4,10.5,30.09,SSE,167,0.0,0.0,65,0.00,,,0.00,WUHU216DAVISVP2,2013-01-21 05:44:00,
2013-01-21 00:49:00,20.3,10.4,30.09,SSE,167,0.0,0.0,65,0.00,,,0.00,WUHU216DAVISVP2,2013-01-21 05:49:00,
2013-01-21 00:54:00,20.2,10.0,30.09,SSE,167,0.0,0.0,64,0.00,,,0.00,WUHU216DAVISVP2,2013-01-21 05:54:00,
2013-01-21 00:59:00,20.2,10.4,30.08,SSE,167,0.0,0.0,65,0.00,,,0.00,WUHU216DAVISVP2,2013-01-21 05:59:00,
2013-01-21 01:04:00,20.2,10.0,30.08,SSE,167,0.0,0.0,64,0.00,,,0.00,WUHU216DAVISVP2,2013-01-21 06:04:00,
2013-01-21 01:09:00,20.2,10.4,30.09,SSE,167,0.0,0.0,65,0.00,,,0.00,WUHU216DAVISVP2,2013-01-21 06:09:00,
2013-01-21 01:14:00,20.2,10.0,30.08,SSE,167,0.0,0.0,64,0.00,,,0.00,WUHU216DAVISVP2,2013-01-21 06:14:00,
2013-01-21 01:19:00,20.3,10.5,30.08,SSE,167,0.0,0.0,65,0.00,,,0.00,WUHU216DAVISVP2,2013-01-21 06:19:00,
2013-01-21 01:20:00,20.3,10.5,30.08,SSE,167,0.0,0.0,65,0.00,,,0.00,WUHU216DAVISVP2,2013-01-21 06:20:00,
2013-01-21 01:24:00,20.4,10.2,30.08,SSE,167,0.0,0.0,64,0.00,,,0.00,WUHU216DAVISVP2,2013-01-21 06:24:00,
2013-01-21 01:29:00,20.3,10.5,30.08,SSE,167,0.0,0.0,65,0.00,,,0.00,WUHU216DAVISVP2,2013-01-21 06:29:00,
2013-01-21 01:34:00,20.4,10.2,30.07,SSE,167,0.0,0.0,64,0.00,,,0.00,WUHU216DAVISVP2,2013-01-21 06:34:00,
2013-01-21 01:39:00,20.4,10.2,30.07,SSE,167,0.0,0.0,64,0.00,,,0.00,WUHU216DAVISVP2,2013-01-21 06:39:00,
2013-01-21 01:44:00,20.3,9.8,30.07,SSE,167,0.0,0.0,63,0.00,,,0.00,WUHU216DAVISVP2,2013-01-21 06:44:00,
2013-01-21 01:49:00,20.4,10.6,30.07,SSE,167,0.0,0.0,65,0.00,,,0.00,WUHU216DAVISVP2,2013-01-21 06:49:00,
2013-01-21 01:55:00,20.4,10.6,30.07,SSE,167,0.0,0.0,65,0.00,,,0.00,WUHU216DAVISVP2,2013-01-21 06:55:00,
2013-01-21 02:00:00,20.4,9.9,30.07,SSE,167,0.0,0.0,63,0.00,,,0.00,WUHU216DAVISVP2,2013-01-21 07:00:00,
2013-01-21 02:05:00,20.4,10.2,30.07,SSE,167,0.0,0.0,64,0.00,,,0.00,WUHU216DAVISVP2,2013-01-21 07:05:00,
2013-01-21 02:10:00,20.3,10.5,30.08,SSE,167,0.0,0.0,65,0.00,,,0.00,WUHU216DAVISVP2,2013-01-21 07:10:00,
2013-01-21 02:15:00,20.3,9.8,30.08,SSE,167,0.0,0.0,63,0.00,,,0.00,WUHU216DAVISVP2,2013-01-21 07:15:00,
2013-01-21 02:20:00,20.3,10.1,30.08,SSE,167,0.0,0.0,64,0.00,,,0.00,WUHU216DAVISVP2,2013-01-21 07:20:00,
2013-01-21 02:26:00,20.3,10.5,30.07,SSE,167,0.0,0.0,65,0.00,,,0.00,WUHU216DAVISVP2,2013-01-21 07:26:00,
2013-01-21 02:31:00,20.3,10.8,30.07,SSE,167,0.0,0.0,66,0.00,,,0.00,WUHU216DAVISVP2,2013-01-21 07:31:00,
2013-01-21 02:36:00,20.3,10.5,30.07,SSE,167,0.0,0.0,65,0.00,,,0.00,WUHU216DAVISVP2,2013-01-21 07:36:00,
2013-01-21 02:41:00,20.2,10.7,30.07,SSE,167,0.0,0.0,66,0.00,,,0.00,WUHU216DAVISVP2,2013-01-21 07:41:00,
2013-01-21 02:46:00,20.3,11.1,30.07,SSE,167,0.0,0.0,67,0.00,,,0.00,WUHU216DAVISVP2,2013-01-21 07:46:00,
2013-01-21 02:51:00,20.5,10.7,30.07,SSE,167,0.0,0.0,65,0.00,,,0.00,WUHU216DAVISVP2,2013-01-21 07:51:00,
2013-01-21 02:56:00,20.5,11.0,30.07,SSE,167,0.0,0.0,66,0.00,,,0.00,WUHU216DAVISVP2,2013-01-21 07:56:00,
2013-01-21 03:01:00,20.6,11.1,30.07,SSE,167,0.0,0.0,66,0.00,,,0.00,WUHU216DAVISVP2,2013-01-21 08:01:00,
2013-01-21 03:06:00,20.7,10.8,30.07,SSE,167,0.0,0.0,65,0.00,,,0.00,WUHU216DAVISVP2,2013-01-21 08:06:00,
2013-01-21 03:11:00,20.6,11.1,30.07,SSE,167,0.0,0.0,66,0.00,,,0.00,WUHU216DAVISVP2,2013-01-21 08:11:00,
2013-01-21 03:16:00,20.6,11.1,30.06,SSE,167,0.0,0.0,66,0.00,,,0.00,WUHU216DAVISVP2,2013-01-21 08:16:00,
2013-01-21 03:21:00,20.6,11.8,30.06,SSE,167,0.0,0.0,68,0.00,,,0.00,WUHU216DAVISVP2,2013-01-21 08:21:00,
2013-01-21 03:27:00,20.6,11.4,30.06,SSE,167,0.0,0.0,67,0.00,,,0.00,WUHU216DAVISVP2,2013-01-21 08:27:00,
2013-01-21 03:32:00,20.6,11.7,30.06,SSE,167,0.0,0.0,68,0.00,,,0.00,WUHU216DAVISVP2,2013-01-21 08:32:00,
2013-01-21 03:37:00,20.6,11.4,30.06,SSE,167,0.0,0.0,67,0.00,,,0.00,WUHU216DAVISVP2,2013-01-21 08:37:00,
2013-01-21 03:42:00,20.6,11.7,30.06,SSE,167,0.0,0.0,68,0.00,,,0.00,WUHU216DAVISVP2,2013-01-21 08:42:00,
2013-01-21 03:44:00,20.7,11.8,30.05,SSE,167,0.0,0.0,68,0.00,,,0.00,WUHU216DAVISVP2,2013-01-21 08:44:00,
2013-01-21 03:47:00,20.7,11.8,30.05,SSE,167,0.0,0.0,68,0.00,,,0.00,WUHU216DAVISVP2,2013-01-21 08:47:00,
2013-01-21 03:50:00,20.7,11.8,30.05,SSE,167,0.0,0.0,68,0.00,,,0.00,WUHU216DAVISVP2,2013-01-21 08:50:00,
2013-01-21 03:52:00,20.7,11.8,30.05,SSE,167,0.0,0.0,68,0.00,,,0.00,WUHU216DAVISVP2,2013-01-21 08:52:00,
2013-01-21 03:57:00,20.7,11.8,30.05,SSE,167,0.0,0.0,68,0.00,,,0.00,WUHU216DAVISVP2,2013-01-21 08:57:00,
2013-01-21 04:02:00,20.8,12.6,30.05,SSE,167,0.0,0.0,70,0.00,,,0.00,WUHU216DAVISVP2,2013-01-21 09:02:00,
2013-01-21 04:07:00,20.8,12.2,30.04,SSE,167,0.0,0.0,69,0.00,,,0.00,WUHU216DAVISVP2,2013-01-21 09:07:00,
2013-01-21 04:12:00,20.7,12.1,30.04,SSE,167,0.0,0.0,69,0.00,,,0.00,WUHU216DAVISVP2,2013-01-21 09:12:00,
2013-01-21 04:17:00,20.7,12.5,30.04,SSE,167,0.0,0.0,70,0.00,,,0.00,WUHU216DAVISVP2,2013-01-21 09:17:00,
2013-01-21 04:21:00,20.8,12.2,30.03,SSE,167,0.0,0.0,69,0.00,,,0.00,WUHU216DAVISVP2,2013-01-21 09:21:00,
2013-01-21 04:22:00,20.8,12.2,30.03,SSE,167,0.0,0.0,69,0.00,,,0.00,WUHU216DAVISVP2,2013-01-21 09:22:00,
2013-01-21 04:27:00,20.8,12.2,30.03,SSE,167,0.0,0.0,69,0.00,,,0.00,WUHU216DAVISVP2,2013-01-21 09:27:00,
2013-01-21 04:32:00,20.8,12.6,30.03,SSE,167,0.0,0.0,70,0.00,,,0.00,WUHU216DAVISVP2,2013-01-21 09:32:00,
2013-01-21 04:37:00,20.8,12.2,30.02,SSE,167,0.0,0.0,69,0.00,,,0.00,WUHU216DAVISVP2,2013-01-21 09:37:00,
2013-01-21 04:42:00,20.8,12.9,30.02,SSE,167,0.0,0.0,71,0.00,,,0.00,WUHU216DAVISVP2,2013-01-21 09:42:00,
2013-01-21 04:47:00,21.0,13.7,30.02,SSE,167,0.0,0.0,73,0.00,,,0.00,WUHU216DAVISVP2,2013-01-21 09:47:00,
2013-01-21 04:52:00,21.1,13.5,30.02,SSE,167,0.0,0.0,72,0.00,,,0.00,WUHU216DAVISVP2,2013-01-21 09:52:00,
2013-01-21 04:57:00,21.1,13.5,30.02,SSE,167,0.0,0.0,72,0.00,,,0.00,WUHU216DAVISVP2,2013-01-21 09:57:00,
2013-01-21 05:03:00,21.1,13.8,30.02,SSE,167,0.0,0.0,73,0.00,,,0.00,WUHU216DAVISVP2,2013-01-21 10:03:00,
2013-01-21 05:08:00,21.2,13.9,30.02,SSE,167,0.0,0.0,73,0.00,,,0.00,WUHU216DAVISVP2,2013-01-21 10:08:00,
2013-01-21 05:13:00,21.3,14.3,30.01,SSE,167,0.0,0.0,74,0.00,,,0.00,WUHU216DAVISVP2,2013-01-21 10:13:00,
2013-01-21 05:18:00,21.5,14.8,30.01,SSE,167,0.0,0.0,75,0.00,,,0.00,WUHU216DAVISVP2,2013-01-21 10:18:00,
2013-01-21 05:23:00,21.5,14.8,30.01,SSE,167,0.0,0.0,75,0.00,,,0.00,WUHU216DAVISVP2,2013-01-21 10:23:00,
2013-01-21 05:28:00,21.5,14.5,30.01,SSE,167,0.0,0.0,74,0.00,,,0.00,WUHU216DAVISVP2,2013-01-21 10:28:00,
2013-01-21 05:33:00,21.4,14.7,30.01,SSE,167,0.0,0.0,75,0.00,,,0.00,WUHU216DAVISVP2,2013-01-21 10:33:00,
2013-01-21 05:38:00,21.4,14.4,30.01,SSE,167,0.0,0.0,74,0.00,,,0.00,WUHU216DAVISVP2,2013-01-21 10:38:00,
2013-01-21 05:43:00,21.4,14.7,30.00,SSE,167,0.0,0.0,75,0.00,,,0.00,WUHU216DAVISVP2,2013-01-21 10:43:00,
2013-01-21 05:48:00,21.4,14.4,30.00,SSE,167,0.0,0.0,74,0.00,,,0.00,WUHU216DAVISVP2,2013-01-21 10:48:00,
2013-01-21 05:53:00,21.3,14.6,30.00,NNE,33,0.0,0.0,75,0.00,,,0.00,WUHU216DAVISVP2,2013-01-21 10:53:00,
2013-01-21 05:58:00,21.2,14.5,30.00,NE,49,0.0,0.0,75,0.00,,,0.00,WUHU216DAVISVP2,2013-01-21 10:58:00,
2013-01-21 06:04:00,21.1,14.7,30.00,ENE,69,0.0,0.0,76,0.00,,,0.00,WUHU216DAVISVP2,2013-01-21 11:04:00,
2013-01-21 06:09:00,21.1,14.7,30.00,NE,56,0.0,0.0,76,0.00,,,0.00,WUHU216DAVISVP2,2013-01-21 11:09:00,
2013-01-21 06:14:00,21.0,14.6,30.00,WNW,296,0.0,0.0,76,0.00,,,0.00,WUHU216DAVISVP2,2013-01-21 11:14:00,
2013-01-21 06:19:00,20.9,14.3,30.00,ESE,110,0.0,0.0,75,0.00,,,0.00,WUHU216DAVISVP2,2013-01-21 11:19:00,
2013-01-21 06:24:00,21.1,14.7,30.00,ENE,59,0.0,0.0,76,0.00,,,0.00,WUHU216DAVISVP2,2013-01-21 11:24:00,
2013-01-21 06:29:00,21.1,14.4,30.00,NE,42,0.0,0.0,75,0.00,,,0.00,WUHU216DAVISVP2,2013-01-21 11:29:00,
2013-01-21 06:34:00,21.2,14.5,30.00,NW,307,0.0,0.0,75,0.00,,,0.00,WUHU216DAVISVP2,2013-01-21 11:34:00,
2013-01-21 06:39:00,21.2,14.5,30.00,NW,307,0.0,0.0,75,0.00,,,0.00,WUHU216DAVISVP2,2013-01-21 11:39:00,
2013-01-21 06:44:00,21.1,14.1,30.00,ENE,63,0.0,0.0,74,0.00,,,0.00,WUHU216DAVISVP2,2013-01-21 11:44:00,
2013-01-21 06:49:00,21.1,14.4,30.00,NNE,30,0.0,0.0,75,0.00,,,0.00,WUHU216DAVISVP2,2013-01-21 11:49:00,
2013-01-21 06:54:00,21.1,14.1,30.00,NNE,32,0.0,0.0,74,0.00,,,0.00,WUHU216DAVISVP2,2013-01-21 11:54:00,
2013-01-21 06:59:00,21.1,14.4,30.00,NE,49,0.0,0.0,75,0.00,,,0.00,WUHU216DAVISVP2,2013-01-21 11:59:00,
2013-01-21 07:04:00,21.1,14.7,30.00,North,5,0.0,0.0,76,0.00,,,0.00,WUHU216DAVISVP2,2013-01-21 12:04:00,
2013-01-21 07:09:00,21.0,14.6,30.00,ENE,66,0.0,0.0,76,0.00,,,0.00,WUHU216DAVISVP2,2013-01-21 12:09:00,
2013-01-21 07:15:00,20.9,14.5,30.00,NE,39,0.0,0.0,76,0.00,,,0.00,WUHU216DAVISVP2,2013-01-21 12:15:00,
2013-01-21 07:20:00,20.7,14.4,30.00,NNE,25,0.0,0.0,76,0.00,,,0.00,WUHU216DAVISVP2,2013-01-21 12:20:00,
2013-01-21 07:25:00,20.6,14.3,30.00,NE,54,0.0,0.0,76,0.00,,,0.00,WUHU216DAVISVP2,2013-01-21 12:25:00,
2013-01-21 07:30:00,20.5,14.2,30.00,North,360,0.0,0.0,76,0.00,,,0.00,WUHU216DAVISVP2,2013-01-21 12:30:00,
2013-01-21 07:35:00,20.6,14.3,30.00,NW,309,0.0,0.0,76,0.00,,,0.00,WUHU216DAVISVP2,2013-01-21 12:35:00,
2013-01-21 07:40:00,20.6,14.0,30.00,WNW,302,0.0,0.0,75,0.00,,,0.00,WUHU216DAVISVP2,2013-01-21 12:40:00,
2013-01-21 07:46:00,20.5,13.9,30.00,East,87,0.0,0.0,75,0.00,,,0.00,WUHU216DAVISVP2,2013-01-21 12:46:00,
2013-01-21 07:51:00,20.4,13.8,30.00,NE,36,0.0,0.0,75,0.00,,,0.00,WUHU216DAVISVP2,2013-01-21 12:51:00,
2013-01-21 07:56:00,20.2,13.6,30.00,NE,55,0.0,0.0,75,0.00,,,0.00,WUHU216DAVISVP2,2013-01-21 12:56:00,
2013-01-21 08:01:00,20.2,13.6,29.99,NE,51,0.0,0.0,75,0.00,,,0.00,WUHU216DAVISVP2,2013-01-21 13:01:00,
2013-01-21 08:06:00,20.2,13.6,30.00,NNW,342,0.0,0.0,75,0.00,,,0.00,WUHU216DAVISVP2,2013-01-21 13:06:00,
2013-01-21 08:11:00,20.1,13.2,29.99,ESE,123,0.0,0.0,74,0.00,,,0.00,WUHU216DAVISVP2,2013-01-21 13:11:00,
2013-01-21 08:16:00,20.1,13.5,30.00,SSW,195,0.0,0.0,75,0.00,,,0.00,WUHU216DAVISVP2,2013-01-21 13:16:00,
2013-01-21 08:21:00,20.2,13.6,29.99,ENE,67,0.0,0.0,75,0.00,,,0.00,WUHU216DAVISVP2,2013-01-21 13:21:00,
2013-01-21 08:27:00,20.2,13.3,29.99,NE,51,0.0,0.0,74,0.00,,,0.00,WUHU216DAVISVP2,2013-01-21 13:27:00,
2013-01-21 08:32:00,20.3,13.4,29.99,WNW,301,0.0,0.0,74,0.00,,,0.00,WUHU216DAVISVP2,2013-01-21 13:32:00,
2013-01-21 08:37:00,20.3,13.1,29.99,East,93,0.0,0.0,73,0.00,,,0.00,WUHU216DAVISVP2,2013-01-21 13:37:00,
2013-01-21 08:42:00,20.2,13.0,29.99,NE,56,0.0,0.0,73,0.00,,,0.00,WUHU216DAVISVP2,2013-01-21 13:42:00,
2013-01-21 08:47:00,20.2,12.7,29.99,ENE,64,0.0,0.0,72,0.00,,,0.00,WUHU216DAVISVP2,2013-01-21 13:47:00,
2013-01-21 08:52:00,20.2,13.0,29.98,NNW,344,0.0,0.0,73,0.00,,,0.00,WUHU216DAVISVP2,2013-01-21 13:52:00,
2013-01-21 08:57:00,20.2,12.7,29.98,NE,55,0.0,0.0,72,0.00,,,0.00,WUHU216DAVISVP2,2013-01-21 13:57:00,
2013-01-21 09:02:00,20.3,12.7,29.98,NNE,28,0.0,0.0,72,0.00,,,0.00,WUHU216DAVISVP2,2013-01-21 14:02:00,
2013-01-21 09:07:00,20.3,12.1,29.99,NE,50,0.0,0.0,70,0.00,,,0.00,WUHU216DAVISVP2,2013-01-21 14:07:00,
2013-01-21 09:12:00,20.2,12.3,29.99,NE,49,0.0,0.0,71,0.00,,,0.00,WUHU216DAVISVP2,2013-01-21 14:12:00,
2013-01-21 09:17:00,20.0,11.5,29.99,NNE,13,0.0,0.0,69,0.00,,,0.00,WUHU216DAVISVP2,2013-01-21 14:17:00,
2013-01-21 09:23:00,19.8,11.3,29.99,North,5,0.0,0.0,69,0.00,,,0.00,WUHU216DAVISVP2,2013-01-21 14:23:00,
2013-01-21 09:28:00,19.8,11.3,29.99,NE,50,0.0,0.0,69,0.00,,,0.00,WUHU216DAVISVP2,2013-01-21 14:28:00,
2013-01-21 09:33:00,19.8,11.3,29.99,NE,36,0.0,0.0,69,0.00,,,0.00,WUHU216DAVISVP2,2013-01-21 14:33:00,
2013-01-21 09:38:00,19.7,11.2,29.99,East,86,0.0,0.0,69,0.00,,,0.00,WUHU216DAVISVP2,2013-01-21 14:38:00,
2013-01-21 09:43:00,19.7,11.2,29.99,NNE,31,0.0,0.0,69,0.00,,,0.00,WUHU216DAVISVP2,2013-01-21 14:43:00,
2013-01-21 09:48:00,19.7,11.2,29.99,NNE,31,0.0,0.0,69,0.00,,,0.00,WUHU216DAVISVP2,2013-01-21 14:48:00,
2013-01-21 09:54:00,19.7,11.9,29.99,ENE,59,0.0,0.0,71,0.00,,,0.00,WUHU216DAVISVP2,2013-01-21 14:54:00,
2013-01-21 09:59:00,19.6,11.5,30.00,ENE,78,0.0,0.0,70,0.00,,,0.00,WUHU216DAVISVP2,2013-01-21 14:59:00,
2013-01-21 10:04:00,19.7,11.9,30.00,NNW,334,0.0,0.0,71,0.00,,,0.00,WUHU216DAVISVP2,2013-01-21 15:04:00,
2013-01-21 10:09:00,19.8,12.0,29.99,East,93,0.0,0.0,71,0.00,,,0.00,WUHU216DAVISVP2,2013-01-21 15:09:00,
2013-01-21 10:14:00,20.0,12.5,29.99,ENE,57,0.0,0.0,72,0.00,,,0.00,WUHU216DAVISVP2,2013-01-21 15:14:00,
2013-01-21 10:19:00,20.1,12.6,29.99,ENE,61,0.0,0.0,72,0.00,,,0.00,WUHU216DAVISVP2,2013-01-21 15:19:00,
2013-01-21 10:24:00,20.2,12.3,29.99,ENE,77,0.0,0.0,71,0.00,,,0.00,WUHU216DAVISVP2,2013-01-21 15:24:00,
2013-01-21 10:30:00,20.3,12.4,29.99,NE,40,0.0,0.0,71,0.00,,,0.00,WUHU216DAVISVP2,2013-01-21 15:30:00,
2013-01-21 10:35:00,20.5,12.6,29.99,East,101,0.0,0.0,71,0.00,,,0.00,WUHU216DAVISVP2,2013-01-21 15:35:00,
2013-01-21 10:40:00,20.8,12.3,29.99,ENE,59,0.0,0.0,69,0.00,,,0.00,WUHU216DAVISVP2,2013-01-21 15:40:00,
2013-01-21 10:45:00,20.7,11.9,29.99,NNE,28,0.0,0.0,68,0.00,,,0.00,WUHU216DAVISVP2,2013-01-21 15:45:00,
2013-01-21 10:47:00,20.7,11.9,29.99,ENE,73,0.0,0.0,68,0.00,,,0.00,WUHU216DAVISVP2,2013-01-21 15:47:00,
2013-01-21 10:50:00,20.6,12.1,29.99,ENE,74,0.0,0.0,69,0.00,,,0.00,WUHU216DAVISVP2,2013-01-21 15:50:00,
2013-01-21 10:55:00,20.4,12.2,29.99,NE,55,0.0,0.0,70,0.00,,,0.00,WUHU216DAVISVP2,2013-01-21 15:55:00,
2013-01-21 11:00:00,20.4,12.5,29.98,NE,44,0.0,0.0,71,0.00,,,0.00,WUHU216DAVISVP2,2013-01-21 16:00:00,
2013-01-21 11:05:00,20.8,12.9,29.98,ENE,59,0.0,0.0,71,0.00,,,0.00,WUHU216DAVISVP2,2013-01-21 16:05:00,
2013-01-21 11:11:00,21.1,12.9,29.99,NE,51,0.0,0.0,70,0.00,,,0.00,WUHU216DAVISVP2,2013-01-21 16:11:00,
2013-01-21 11:16:00,21.0,12.8,29.98,NW,315,0.0,0.0,70,0.00,,,0.00,WUHU216DAVISVP2,2013-01-21 16:16:00,
2013-01-21 11:21:00,21.2,11.7,29.98,NE,53,0.0,0.0,66,0.00,,,0.00,WUHU216DAVISVP2,2013-01-21 16:21:00,
2013-01-21 11:26:00,21.3,12.1,29.98,NNE,29,0.0,0.0,67,0.00,,,0.00,WUHU216DAVISVP2,2013-01-21 16:26:00,
2013-01-21 11:31:00,21.5,11.6,29.98,ENE,76,0.0,0.0,65,0.00,,,0.00,WUHU216DAVISVP2,2013-01-21 16:31:00,
2013-01-21 11:36:00,21.6,11.3,29.98,ENE,57,0.0,0.0,64,0.00,,,0.00,WUHU216DAVISVP2,2013-01-21 16:36:00,
2013-01-21 11:41:00,21.5,10.9,29.98,ENE,68,0.0,0.0,63,0.00,,,0.00,WUHU216DAVISVP2,2013-01-21 16:41:00,
2013-01-21 11:46:00,20.3,11.1,29.98,NE,54,0.0,0.0,67,0.00,,,0.00,WUHU216DAVISVP2,2013-01-21 16:46:00,
2013-01-21 11:51:00,20.2,11.4,29.97,ENE,73,0.0,0.0,68,0.00,,,0.00,WUHU216DAVISVP2,2013-01-21 16:51:00,
2013-01-21 11:56:00,20.2,10.0,29.97,West,260,0.0,0.0,64,0.00,,,0.00,WUHU216DAVISVP2,2013-01-21 16:56:00,
2013-01-21 12:01:00,20.2,9.7,29.97,ENE,69,0.0,0.0,63,0.00,,,0.00,WUHU216DAVISVP2,2013-01-21 17:01:00,
2013-01-21 12:06:00,21.2,9.9,29.96,ESE,104,0.0,0.0,61,0.00,,,0.00,WUHU216DAVISVP2,2013-01-21 17:06:00,
2013-01-21 12:12:00,21.8,10.4,29.96,North,5,0.0,0.0,61,0.00,,,0.00,WUHU216DAVISVP2,2013-01-21 17:12:00,
2013-01-21 12:17:00,22.1,10.4,29.96,NE,42,0.0,0.0,60,0.00,,,0.00,WUHU216DAVISVP2,2013-01-21 17:17:00,
2013-01-21 12:22:00,21.4,10.8,29.96,ENE,57,0.0,0.0,63,0.00,,,0.00,WUHU216DAVISVP2,2013-01-21 17:22:00,
2013-01-21 12:27:00,21.4,11.2,29.96,ENE,75,0.0,0.0,64,0.00,,,0.00,WUHU216DAVISVP2,2013-01-21 17:27:00,
2013-01-21 12:32:00,21.5,11.6,29.96,East,81,0.0,0.0,65,0.00,,,0.00,WUHU216DAVISVP2,2013-01-21 17:32:00,
2013-01-21 12:37:00,22.1,11.1,29.95,ESE,116,0.0,0.0,62,0.00,,,0.00,WUHU216DAVISVP2,2013-01-21 17:37:00,
2013-01-21 12:42:00,23.3,11.1,29.95,ENE,73,0.0,0.0,59,0.00,,,0.00,WUHU216DAVISVP2,2013-01-21 17:42:00,
2013-01-21 12:48:00,23.5,10.9,29.95,ENE,76,0.0,0.0,58,0.00,,,0.00,WUHU216DAVISVP2,2013-01-21 17:48:00,
2013-01-21 12:53:00,22.9,10.3,29.95,NE,52,0.0,0.0,58,0.00,,,0.00,WUHU216DAVISVP2,2013-01-21 17:53:00,
2013-01-21 12:58:00,22.4,10.6,29.95,SSE,167,0.0,0.0,60,0.00,,,0.00,WUHU216DAVISVP2,2013-01-21 17:58:00,
2013-01-21 13:03:00,22.4,10.6,29.95,SSE,167,0.0,0.0,60,0.00,,,0.00,WUHU216DAVISVP2,2013-01-21 18:03:00,
2013-01-21 13:08:00,21.6,11.3,29.95,ENE,71,0.0,0.0,64,0.00,,,0.00,WUHU216DAVISVP2,2013-01-21 18:08:00,
2013-01-21 13:13:00,21.1,11.2,29.94,ESE,122,0.0,0.0,65,0.00,,,0.00,WUHU216DAVISVP2,2013-01-21 18:13:00,
2013-01-21 13:18:00,21.1,10.9,29.94,ENE,74,0.0,0.0,64,0.00,,,0.00,WUHU216DAVISVP2,2013-01-21 18:18:00,
2013-01-21 13:23:00,21.1,10.9,29.94,ENE,74,0.0,0.0,64,0.00,,,0.00,WUHU216DAVISVP2,2013-01-21 18:23:00,
2013-01-21 13:28:00,21.8,9.3,29.94,North,360,0.0,0.0,58,0.00,,,0.00,WUHU216DAVISVP2,2013-01-21 18:28:00,
2013-01-21 13:33:00,21.9,9.0,29.94,SSE,167,0.0,0.0,57,0.00,,,0.00,WUHU216DAVISVP2,2013-01-21 18:33:00,
2013-01-21 13:38:00,22.4,7.4,29.94,NE,55,0.0,0.0,52,0.00,,,0.00,WUHU216DAVISVP2,2013-01-21 18:38:00,
2013-01-21 13:43:00,22.3,6.8,29.94,NE,38,0.0,0.0,51,0.00,,,0.00,WUHU216DAVISVP2,2013-01-21 18:43:00,
2013-01-21 13:49:00,22.2,7.2,29.94,East,92,0.0,0.0,52,0.00,,,0.00,WUHU216DAVISVP2,2013-01-21 18:49:00,
2013-01-21 13:54:00,22.3,6.8,29.94,NNE,32,0.0,0.0,51,0.00,,,0.00,WUHU216DAVISVP2,2013-01-21 18:54:00,
2013-01-21 13:59:00,21.9,6.0,29.94,NE,46,0.0,0.0,50,0.00,,,0.00,WUHU216DAVISVP2,2013-01-21 18:59:00,
2013-01-21 14:04:00,21.7,7.2,29.94,East,80,0.0,0.0,53,0.00,,,0.00,WUHU216DAVISVP2,2013-01-21 19:04:00,
2013-01-21 14:09:00,21.8,7.3,29.94,East,79,0.0,0.0,53,0.00,,,0.00,WUHU216DAVISVP2,2013-01-21 19:09:00,
2013-01-21 14:14:00,22.2,5.9,29.95,ENE,61,0.0,0.0,49,0.00,,,0.00,WUHU216DAVISVP2,2013-01-21 19:14:00,
2013-01-21 14:19:00,22.1,5.4,29.94,ENE,67,0.0,0.0,48,0.00,,,0.00,WUHU216DAVISVP2,2013-01-21 19:19:00,
2013-01-21 14:25:00,21.9,5.2,29.95,ESE,123,0.0,0.0,48,0.00,,,0.00,WUHU216DAVISVP2,2013-01-21 19:25:00,
2013-01-21 14:30:00,21.5,10.1,29.95,ESE,112,0.0,0.0,61,0.00,,,0.00,WUHU216DAVISVP2,2013-01-21 19:30:00,
2013-01-21 14:35:00,20.3,10.4,29.96,ESE,114,0.0,0.0,65,0.00,,,0.00,WUHU216DAVISVP2,2013-01-21 19:35:00,
2013-01-21 14:40:00,19.5,12.3,29.96,ESE,123,0.0,0.0,73,0.00,,,0.00,WUHU216DAVISVP2,2013-01-21 19:40:00,
2013-01-21 14:45:00,18.4,12.7,29.96,ESE,123,0.0,0.0,78,0.00,,,0.00,WUHU216DAVISVP2,2013-01-21 19:45:00,
2013-01-21 14:50:00,18.2,12.5,29.96,ESE,123,0.0,0.0,78,0.00,,,0.00,WUHU216DAVISVP2,2013-01-21 19:50:00,
2013-01-21 14:55:00,17.4,12.3,29.97,ESE,123,0.0,0.0,80,0.00,,,0.00,WUHU216DAVISVP2,2013-01-21 19:55:00,
2013-01-21 14:58:00,17.3,12.5,29.97,ENE,74,0.0,0.0,81,0.00,,,0.00,WUHU216DAVISVP2,2013-01-21 19:58:00,
2013-01-21 15:00:00,17.3,12.5,29.97,ENE,74,0.0,0.0,81,0.00,,,0.00,WUHU216DAVISVP2,2013-01-21 20:00:00,
2013-01-21 15:03:00,17.5,12.4,29.97,ESE,123,0.0,0.0,80,0.00,,,0.00,WUHU216DAVISVP2,2013-01-21 20:03:00,
2013-01-21 15:05:00,17.3,12.5,29.97,ENE,74,0.0,0.0,81,0.00,,,0.00,WUHU216DAVISVP2,2013-01-21 20:05:00,
2013-01-21 15:10:00,17.8,12.7,29.97,East,98,0.0,0.0,80,0.00,,,0.00,WUHU216DAVISVP2,2013-01-21 20:10:00,
2013-01-21 15:15:00,18.2,13.1,29.97,East,84,0.0,0.0,80,0.00,,,0.00,WUHU216DAVISVP2,2013-01-21 20:15:00,
2013-01-21 15:21:00,18.2,13.3,29.98,ESE,102,0.0,0.0,81,0.00,,,0.00,WUHU216DAVISVP2,2013-01-21 20:21:00,
2013-01-21 15:26:00,18.2,13.3,29.98,ESE,117,0.0,0.0,81,0.00,,,0.00,WUHU216DAVISVP2,2013-01-21 20:26:00,
2013-01-21 15:31:00,17.8,13.2,29.99,NE,47,0.0,0.0,82,0.00,,,0.00,WUHU216DAVISVP2,2013-01-21 20:31:00,
2013-01-21 15:36:00,17.8,13.2,29.99,NE,47,0.0,0.0,82,0.00,,,0.00,WUHU216DAVISVP2,2013-01-21 20:36:00,
2013-01-21 15:41:00,17.5,12.9,29.99,North,355,0.0,0.0,82,0.00,,,0.00,WUHU216DAVISVP2,2013-01-21 20:41:00,
2013-01-21 15:46:00,17.5,12.9,29.99,NE,34,0.0,0.0,82,0.00,,,0.00,WUHU216DAVISVP2,2013-01-21 20:46:00,
2013-01-21 15:52:00,17.5,12.7,29.99,NE,49,0.0,0.0,81,0.00,,,0.00,WUHU216DAVISVP2,2013-01-21 20:52:00,
2013-01-21 15:57:00,17.4,12.6,29.99,ESE,121,0.0,0.0,81,0.00,,,0.00,WUHU216DAVISVP2,2013-01-21 20:57:00,
2013-01-21 16:02:00,17.1,12.0,29.99,ESE,112,0.0,0.0,80,0.00,,,0.00,WUHU216DAVISVP2,2013-01-21 21:02:00,
2013-01-21 16:07:00,17.0,11.9,30.00,NE,49,0.0,0.0,80,0.00,,,0.00,WUHU216DAVISVP2,2013-01-21 21:07:00,
2013-01-21 16:12:00,17.0,11.3,29.99,NE,48,0.0,0.0,78,0.00,,,0.00,WUHU216DAVISVP2,2013-01-21 21:12:00,
2013-01-21 16:17:00,16.9,9.8,30.00,NE,42,0.0,0.0,73,0.00,,,0.00,WUHU216DAVISVP2,2013-01-21 21:17:00,
2013-01-21 16:22:00,16.8,9.4,30.00,NE,53,0.0,0.0,72,0.00,,,0.00,WUHU216DAVISVP2,2013-01-21 21:22:00,
2013-01-21 16:27:00,16.8,9.4,30.00,ENE,57,0.0,0.0,72,0.00,,,0.00,WUHU216DAVISVP2,2013-01-21 21:27:00,
2013-01-21 16:32:00,16.7,8.6,30.00,ENE,65,0.0,0.0,70,0.00,,,0.00,WUHU216DAVISVP2,2013-01-21 21:32:00,
2013-01-21 16:37:00,16.6,8.9,30.01,ENE,59,0.0,0.0,71,0.00,,,0.00,WUHU216DAVISVP2,2013-01-21 21:37:00,
2013-01-21 16:43:00,16.5,9.4,30.01,NNE,31,0.0,0.0,73,0.00,,,0.00,WUHU216DAVISVP2,2013-01-21 21:43:00,
2013-01-21 16:48:00,16.6,10.7,30.01,ENE,62,0.0,0.0,77,0.00,,,0.00,WUHU216DAVISVP2,2013-01-21 21:48:00,
2013-01-21 16:53:00,16.4,11.3,30.01,ENE,71,0.0,0.0,80,0.00,,,0.00,WUHU216DAVISVP2,2013-01-21 21:53:00,
2013-01-21 16:58:00,16.1,11.3,30.02,NE,55,0.0,0.0,81,0.00,,,0.00,WUHU216DAVISVP2,2013-01-21 21:58:00,
2013-01-21 17:03:00,15.7,10.6,30.01,ENE,66,0.0,0.0,80,0.00,,,0.00,WUHU216DAVISVP2,2013-01-21 22:03:00,
2013-01-21 17:08:00,15.7,10.6,30.01,NE,36,0.0,0.0,80,0.00,,,0.00,WUHU216DAVISVP2,2013-01-21 22:08:00,
2013-01-21 17:13:00,15.6,10.8,30.02,NE,42,0.0,0.0,81,0.00,,,0.00,WUHU216DAVISVP2,2013-01-21 22:13:00,
2013-01-21 17:18:00,15.5,11.0,30.02,ENE,58,0.0,0.0,82,0.00,,,0.00,WUHU216DAVISVP2,2013-01-21 22:18:00,
2013-01-21 17:23:00,15.4,10.9,30.02,NE,51,0.0,0.0,82,0.00,,,0.00,WUHU216DAVISVP2,2013-01-21 22:23:00,
2013-01-21 17:29:00,15.5,11.0,30.02,ENE,58,0.0,0.0,82,0.00,,,0.00,WUHU216DAVISVP2,2013-01-21 22:29:00,
2013-01-21 17:34:00,15.4,10.3,30.02,NE,51,0.0,0.0,80,0.00,,,0.00,WUHU216DAVISVP2,2013-01-21 22:34:00,
2013-01-21 17:39:00,15.2,9.9,30.03,ESE,109,0.0,0.0,79,0.00,,,0.00,WUHU216DAVISVP2,2013-01-21 22:39:00,
2013-01-21 17:44:00,14.9,9.6,30.03,East,90,0.0,0.0,79,0.00,,,0.00,WUHU216DAVISVP2,2013-01-21 22:44:00,
2013-01-21 17:49:00,14.6,9.6,30.03,NE,52,0.0,0.0,80,0.00,,,0.00,WUHU216DAVISVP2,2013-01-21 22:49:00,
2013-01-21 17:54:00,14.3,9.0,30.03,East,80,0.0,0.0,79,0.00,,,0.00,WUHU216DAVISVP2,2013-01-21 22:54:00,
2013-01-21 17:59:00,14.1,8.8,30.03,ENE,78,0.0,0.0,79,0.00,,,0.00,WUHU216DAVISVP2,2013-01-21 22:59:00,
2013-01-21 18:04:00,13.9,8.3,30.03,East,84,0.0,0.0,78,0.00,,,0.00,WUHU216DAVISVP2,2013-01-21 23:04:00,
2013-01-21 18:09:00,13.7,7.8,30.03,ENE,57,0.0,0.0,77,0.00,,,0.00,WUHU216DAVISVP2,2013-01-21 23:09:00,
2013-01-21 18:14:00,13.5,7.3,30.04,North,9,0.0,0.0,76,0.00,,,0.00,WUHU216DAVISVP2,2013-01-21 23:14:00,
2013-01-21 18:19:00,13.4,7.0,30.04,NE,53,0.0,0.0,75,0.00,,,0.00,WUHU216DAVISVP2,2013-01-21 23:19:00,
2013-01-21 18:24:00,13.3,6.6,30.04,ENE,78,0.0,0.0,74,0.00,,,0.00,WUHU216DAVISVP2,2013-01-21 23:24:00,
2013-01-21 18:29:00,13.2,6.5,30.04,East,86,0.0,0.0,74,0.00,,,0.00,WUHU216DAVISVP2,2013-01-21 23:29:00,
2013-01-21 18:35:00,13.2,6.5,30.05,NNE,29,0.0,0.0,74,0.00,,,0.00,WUHU216DAVISVP2,2013-01-21 23:35:00,
2013-01-21 18:40:00,13.2,6.8,30.05,ENE,62,0.0,0.0,75,0.00,,,0.00,WUHU216DAVISVP2,2013-01-21 23:40:00,
2013-01-21 18:45:00,13.1,6.4,30.05,ENE,71,0.0,0.0,74,0.00,,,0.00,WUHU216DAVISVP2,2013-01-21 23:45:00,
2013-01-21 18:50:00,13.1,6.7,30.05,NNE,17,0.0,0.0,75,0.00,,,0.00,WUHU216DAVISVP2,2013-01-21 23:50:00,
2013-01-21 18:55:00,13.1,6.1,30.05,ENE,76,0.0,0.0,73,0.00,,,0.00,WUHU216DAVISVP2,2013-01-21 23:55:00,
2013-01-21 19:00:00,13.0,5.4,30.05,ENE,76,0.0,0.0,71,0.00,,,0.00,WUHU216DAVISVP2,2013-01-22 00:00:00,
2013-01-21 19:05:00,12.7,5.1,30.06,ENE,70,0.0,0.0,71,0.00,,,0.00,WUHU216DAVISVP2,2013-01-22 00:05:00,
2013-01-21 19:10:00,12.6,4.7,30.06,ESE,119,0.0,0.0,70,0.00,,,0.00,WUHU216DAVISVP2,2013-01-22 00:10:00,
2013-01-21 19:15:00,12.5,4.0,30.06,NNE,26,0.0,0.0,68,0.00,,,0.00,WUHU216DAVISVP2,2013-01-22 00:15:00,
2013-01-21 19:20:00,12.5,4.3,30.06,ENE,58,0.0,0.0,69,0.00,,,0.00,WUHU216DAVISVP2,2013-01-22 00:20:00,
2013-01-21 19:25:00,12.4,4.5,30.06,East,89,0.0,0.0,70,0.00,,,0.00,WUHU216DAVISVP2,2013-01-22 00:25:00,
2013-01-21 19:31:00,12.3,4.4,30.06,ENE,65,0.0,0.0,70,0.00,,,0.00,WUHU216DAVISVP2,2013-01-22 00:31:00,
2013-01-21 19:36:00,12.3,4.1,30.06,ENE,60,0.0,0.0,69,0.00,,,0.00,WUHU216DAVISVP2,2013-01-22 00:36:00,
2013-01-21 19:41:00,12.2,4.6,30.06,East,82,0.0,0.0,71,0.00,,,0.00,WUHU216DAVISVP2,2013-01-22 00:41:00,
2013-01-21 19:46:00,12.2,4.6,30.06,ENE,63,0.0,0.0,71,0.00,,,0.00,WUHU216DAVISVP2,2013-01-22 00:46:00,
2013-01-21 19:51:00,12.2,4.9,30.06,WNW,296,0.0,0.0,72,0.00,,,0.00,WUHU216DAVISVP2,2013-01-22 00:51:00,
2013-01-21 19:56:00,12.2,4.6,30.07,East,88,0.0,0.0,71,0.00,,,0.00,WUHU216DAVISVP2,2013-01-22 00:56:00,
2013-01-21 20:01:00,12.1,4.8,30.07,ENE,65,0.0,0.0,72,0.00,,,0.00,WUHU216DAVISVP2,2013-01-22 01:01:00,
2013-01-21 20:06:00,12.0,4.7,30.07,NE,40,0.0,0.0,72,0.00,,,0.00,WUHU216DAVISVP2,2013-01-22 01:06:00,
2013-01-21 20:12:00,12.0,4.7,30.07,NE,40,0.0,0.0,72,0.00,,,0.00,WUHU216DAVISVP2,2013-01-22 01:12:00,
2013-01-21 20:17:00,11.8,4.6,30.07,NW,311,0.0,0.0,72,0.00,,,0.00,WUHU216DAVISVP2,2013-01-22 01:17:00,
2013-01-21 20:22:00,11.9,5.2,30.07,East,80,0.0,0.0,74,0.00,,,0.00,WUHU216DAVISVP2,2013-01-22 01:22:00,
2013-01-21 20:27:00,11.9,4.9,30.07,ENE,57,0.0,0.0,73,0.00,,,0.00,WUHU216DAVISVP2,2013-01-22 01:27:00,
2013-01-21 20:32:00,11.8,4.6,30.07,NE,49,0.0,0.0,72,0.00,,,0.00,WUHU216DAVISVP2,2013-01-22 01:32:00,
2013-01-21 20:37:00,11.7,4.5,30.07,East,88,0.0,0.0,72,0.00,,,0.00,WUHU216DAVISVP2,2013-01-22 01:37:00,
2013-01-21 20:42:00,11.7,4.8,30.07,NE,55,0.0,0.0,73,0.00,,,0.00,WUHU216DAVISVP2,2013-01-22 01:42:00,
2013-01-21 20:48:00,11.8,5.1,30.07,ENE,65,0.0,0.0,74,0.00,,,0.00,WUHU216DAVISVP2,2013-01-22 01:48:00,
2013-01-21 20:53:00,11.8,5.1,30.07,ENE,65,0.0,0.0,74,0.00,,,0.00,WUHU216DAVISVP2,2013-01-22 01:53:00,
2013-01-21 20:58:00,11.8,5.4,30.07,NE,56,0.0,0.0,75,0.00,,,0.00,WUHU216DAVISVP2,2013-01-22 01:58:00,
2013-01-21 21:03:00,11.8,5.7,30.07,NE,40,0.0,0.0,76,0.00,,,0.00,WUHU216DAVISVP2,2013-01-22 02:03:00,
2013-01-21 21:08:00,11.9,6.1,30.07,ENE,59,0.0,0.0,77,0.00,,,0.00,WUHU216DAVISVP2,2013-01-22 02:08:00,
2013-01-21 21:13:00,11.9,6.4,30.07,ENE,61,0.0,0.0,78,0.00,,,0.00,WUHU216DAVISVP2,2013-01-22 02:13:00,
2013-01-21 21:18:00,11.9,6.4,30.07,NE,49,0.0,0.0,78,0.00,,,0.00,WUHU216DAVISVP2,2013-01-22 02:18:00,
2013-01-21 21:23:00,11.9,6.6,30.07,NE,51,0.0,0.0,79,0.00,,,0.00,WUHU216DAVISVP2,2013-01-22 02:23:00,
2013-01-21 21:28:00,11.8,6.8,30.08,ENE,71,0.0,0.0,80,0.00,,,0.00,WUHU216DAVISVP2,2013-01-22 02:28:00,
2013-01-21 21:33:00,11.8,6.8,30.08,ENE,73,0.0,0.0,80,0.00,,,0.00,WUHU216DAVISVP2,2013-01-22 02:33:00,
2013-01-21 21:39:00,11.8,7.1,30.08,ENE,73,0.0,0.0,81,0.00,,,0.00,WUHU216DAVISVP2,2013-01-22 02:39:00,
2013-01-21 21:44:00,11.7,7.0,30.08,ENE,73,0.0,0.0,81,0.00,,,0.00,WUHU216DAVISVP2,2013-01-22 02:44:00,
2013-01-21 21:49:00,11.6,6.9,30.08,ENE,78,0.0,0.0,81,0.00,,,0.00,WUHU216DAVISVP2,2013-01-22 02:49:00,
2013-01-21 21:54:00,11.6,7.2,30.09,ENE,78,0.0,0.0,82,0.00,,,0.00,WUHU216DAVISVP2,2013-01-22 02:54:00,
2013-01-21 21:59:00,11.6,7.2,30.09,ENE,78,0.0,0.0,82,0.00,,,0.00,WUHU216DAVISVP2,2013-01-22 02:59:00,
2013-01-21 22:04:00,11.7,6.7,30.08,ENE,60,0.0,0.0,80,0.00,,,0.00,WUHU216DAVISVP2,2013-01-22 03:04:00,
2013-01-21 22:09:00,11.7,6.7,30.08,NE,47,0.0,0.0,80,0.00,,,0.00,WUHU216DAVISVP2,2013-01-22 03:09:00,
2013-01-21 22:14:00,11.7,6.7,30.08,NNE,32,0.0,0.0,80,0.00,,,0.00,WUHU216DAVISVP2,2013-01-22 03:14:00,
2013-01-21 22:19:00,11.5,6.0,30.08,East,99,0.0,0.0,78,0.00,,,0.00,WUHU216DAVISVP2,2013-01-22 03:19:00,
2013-01-21 22:24:00,11.4,5.9,30.09,NNE,28,0.0,0.0,78,0.00,,,0.00,WUHU216DAVISVP2,2013-01-22 03:24:00,
2013-01-21 22:29:00,11.4,5.6,30.09,NNE,28,0.0,0.0,77,0.00,,,0.00,WUHU216DAVISVP2,2013-01-22 03:29:00,
2013-01-21 22:34:00,11.3,5.5,30.09,NNW,340,0.0,0.0,77,0.00,,,0.00,WUHU216DAVISVP2,2013-01-22 03:34:00,
2013-01-21 22:39:00,11.3,5.5,30.09,NE,48,0.0,0.0,77,0.00,,,0.00,WUHU216DAVISVP2,2013-01-22 03:39:00,
2013-01-21 22:44:00,11.2,5.4,30.09,NNE,28,0.0,0.0,77,0.00,,,0.00,WUHU216DAVISVP2,2013-01-22 03:44:00,
2013-01-21 22:49:00,11.2,5.4,30.09,NE,43,0.0,0.0,77,0.00,,,0.00,WUHU216DAVISVP2,2013-01-22 03:49:00,
2013-01-21 22:54:00,11.0,5.5,30.09,NE,47,0.0,0.0,78,0.00,,,0.00,WUHU216DAVISVP2,2013-01-22 03:54:00,
2013-01-21 22:59:00,10.9,5.4,30.09,NE,47,0.0,0.0,78,0.00,,,0.00,WUHU216DAVISVP2,2013-01-22 03:59:00,
2013-01-21 23:05:00,10.9,5.7,30.09,NE,50,0.0,0.0,79,0.00,,,0.00,WUHU216DAVISVP2,2013-01-22 04:05:00,
2013-01-21 23:10:00,10.9,5.7,30.09,NE,50,0.0,0.0,79,0.00,,,0.00,WUHU216DAVISVP2,2013-01-22 04:10:00,
2013-01-21 23:15:00,11.0,6.3,30.10,NE,50,0.0,0.0,81,0.00,,,0.00,WUHU216DAVISVP2,2013-01-22 04:15:00,
2013-01-21 23:20:00,11.0,6.3,30.09,NE,50,0.0,0.0,81,0.00,,,0.00,WUHU216DAVISVP2,2013-01-22 04:20:00,
2013-01-21 23:25:00,11.0,6.3,30.09,NE,50,0.0,0.0,81,0.00,,,0.00,WUHU216DAVISVP2,2013-01-22 04:25:00,
2013-01-21 23:30:00,11.1,6.7,30.10,ESE,123,0.0,0.0,82,0.00,,,0.00,WUHU216DAVISVP2,2013-01-22 04:30:00,
2013-01-21 23:35:00,11.3,6.9,30.10,ENE,63,0.0,0.0,82,0.00,,,0.00,WUHU216DAVISVP2,2013-01-22 04:35:00,
2013-01-21 23:40:00,11.3,6.6,30.10,NE,55,0.0,0.0,81,0.00,,,0.00,WUHU216DAVISVP2,2013-01-22 04:40:00,
2013-01-21 23:45:00,11.3,6.6,30.10,NE,42,0.0,0.0,81,0.00,,,0.00,WUHU216DAVISVP2,2013-01-22 04:45:00,
2013-01-21 23:50:00,11.3,5.8,30.10,East,87,0.0,0.0,78,0.00,,,0.00,WUHU216DAVISVP2,2013-01-22 04:50:00,
2013-01-21 23:55:00,11.3,5.2,30.10,ENE,68,0.0,0.0,76,0.00,,,0.00,WUHU216DAVISVP2,2013-01-22 04:55:00,